JUNEAU AML AK US NWS current weather conditions

sailwx.info

Wind from 130 at 4 knots gusting 5

Air temperature -0.4° C
Dewpoint -0.4° C

Last reported at 2020-Jan-22 15:02 UTC.
Time now 2020-Jan-22 15:58 UTC

Location: N 58°17' W 134°23'.
View on Google Maps.

See reports from other nearby stations

  
Tides and Currents Weather Stations Pressure Air Temp Water Temp Dewpoint Dewpoint Depression Visibility Wind Speed Wind Dir Waves Ship Positions
date/time (UTC)wind fromknots sea level pressurealtimeterstation pressurevisibilityair tempwater tempwave heightnotes
2020-Jan-22 15:02 130 4 gusting 5 -0.4
2020-Jan-22 14:52 130 4 gusting 5 -0.4
2020-Jan-22 14:42 130 5 gusting 6 -0.4
2020-Jan-22 14:32 120 6 gusting 7 -0.5
2020-Jan-22 14:22 120 5 gusting 6 -0.4
2020-Jan-22 14:12 130 4 gusting 6 -0.4
2020-Jan-22 14:02 120 4 gusting 6 -0.4
2020-Jan-22 13:52 130 5 gusting 6 -0.4
2020-Jan-22 13:42 130 5 gusting 6 -0.4
2020-Jan-22 13:32 140 5 gusting 6 -0.4
2020-Jan-22 13:22 120 5 gusting 6 -0.4
2020-Jan-22 13:12 120 5 gusting 6 -0.3
2020-Jan-22 13:02 130 5 gusting 9 -0.3
2020-Jan-22 12:52 140 6 gusting 8 -0.3
2020-Jan-22 12:42 130 6 gusting 9 -0.3
2020-Jan-22 12:32 130 6 gusting 7 -0.4
2020-Jan-22 12:22 120 6 gusting 7 -0.5
2020-Jan-22 12:12 120 5 gusting 6 -0.4
2020-Jan-22 12:02 120 6 gusting 7 -0.4
2020-Jan-22 11:52 120 6 gusting 8 -0.4
2020-Jan-22 11:42 120 6 gusting 7 -0.4
2020-Jan-22 11:32 130 5 gusting 6 -0.4
2020-Jan-22 11:22 120 6 gusting 7 -0.5
2020-Jan-22 11:12 110 5 gusting 6 -0.5
2020-Jan-22 11:02 110 5 gusting 6 -0.4
2020-Jan-22 10:52 120 5 gusting 7 -0.4
2020-Jan-22 10:42 120 5 gusting 6 -0.3
2020-Jan-22 10:32 120 5 gusting 6 -0.3
2020-Jan-22 10:22 120 5 gusting 7 -0.3
2020-Jan-22 10:12 120 6 gusting 8 -0.3
2020-Jan-22 10:02 120 6 gusting 11 -0.4
2020-Jan-22 09:52 130 6 gusting 9 -0.3
2020-Jan-22 09:42 130 5 gusting 8 -0.4
2020-Jan-22 09:32 130 6 gusting 8 -0.3
2020-Jan-22 09:22 110 6 gusting 7 -0.4
2020-Jan-22 09:12 110 6 gusting 7 -0.4
2020-Jan-22 09:02 110 5 gusting 6 -0.3
2020-Jan-22 08:52 120 5 gusting 7 -0.3
2020-Jan-22 08:42 110 5 gusting 6 -0.4
2020-Jan-22 08:32 120 4 gusting 6 -0.4
2020-Jan-22 08:22 120 4 gusting 5 -0.5
2020-Jan-22 08:12 110 4 gusting 6 -0.5
2020-Jan-22 08:02 110 5 gusting 6 -0.5
2020-Jan-22 07:52 130 6 gusting 8 -0.5
2020-Jan-22 07:42 130 6 gusting 7 -0.5
2020-Jan-22 07:32 140 7 gusting 9 -0.5
2020-Jan-22 07:22 140 9 gusting 11 -0.5
2020-Jan-22 07:12 140 9 gusting 11 -0.6
2020-Jan-22 07:02 140 9 gusting 11 -0.6
2020-Jan-22 06:52 140 8 gusting 9 -0.6
2020-Jan-22 06:42 140 8 gusting 12 -0.5
2020-Jan-22 06:32 150 9 gusting 11 -0.5
2020-Jan-22 06:22 150 9 gusting 12 -0.5
2020-Jan-22 06:12 140 9 gusting 12 -0.5
2020-Jan-22 06:02 140 9 gusting 12 -0.5
2020-Jan-22 05:52 140 9 gusting 12 -0.6
2020-Jan-22 05:42 130 6 gusting 11 -0.6
2020-Jan-22 05:32 130 6 gusting 9 -0.6
2020-Jan-22 05:22 120 6 gusting 8 -0.5
2020-Jan-22 05:12 130 7 gusting 11 -0.5
2020-Jan-22 05:02 130 7 gusting 11 -0.4
2020-Jan-22 04:52 130 6 gusting 11 -0.4
2020-Jan-22 04:42 140 8 gusting 12 -0.4
2020-Jan-22 04:32 130 6 gusting 12 -0.5
2020-Jan-22 04:22 130 7 gusting 11 -0.5
2020-Jan-22 04:12 130 8 gusting 11 -0.5
2020-Jan-22 04:02 130 6 gusting 9 -0.5
2020-Jan-22 03:52 120 7 gusting 9 -0.5
2020-Jan-22 03:42 130 7 gusting 11 -0.5
2020-Jan-22 03:32 130 8 gusting 11 -0.4
2020-Jan-22 03:22 140 7 gusting 9 -0.4
2020-Jan-22 03:12 140 8 gusting 11 -0.4
2020-Jan-22 03:02 130 9 gusting 13 -0.3
2020-Jan-22 02:52 120 8 gusting 13 -0.3
2020-Jan-22 02:42 120 7 gusting 11 -0.3
2020-Jan-22 02:32 120 6 gusting 9 -0.2
2020-Jan-22 02:22 130 6 gusting 12 -0.1
2020-Jan-22 02:12 120 6 gusting 9 -0.0
2020-Jan-22 02:02 130 6 gusting 11 0.2
2020-Jan-22 01:52 130 5 gusting 8 0.6
2020-Jan-22 01:42 180 1 gusting 4 1.3
2020-Jan-22 01:32 190 1 gusting 2 1.1
2020-Jan-22 01:22 160 1 gusting 2 0.9
2020-Jan-22 01:12 170 1 gusting 1 1.0
2020-Jan-22 01:02 180 1 gusting 2 1.0
2020-Jan-22 00:52 150 2 gusting 4 0.8
2020-Jan-22 00:42 140 2 gusting 4 0.9
2020-Jan-22 00:32 170 1 gusting 4 0.9
2020-Jan-22 00:22 250 2 gusting 5 0.8
2020-Jan-22 00:12 250 2 gusting 4 0.6
2020-Jan-21 23:52 260 4 gusting 6 0.5
2020-Jan-21 23:42 270 6 gusting 9 0.4
2020-Jan-21 23:32 270 8 gusting 11 0.3
2020-Jan-21 23:22 270 8 gusting 12 0.4
2020-Jan-21 23:12 270 8 gusting 12 0.4
2020-Jan-21 23:02 270 6 gusting 9 0.6
2020-Jan-21 22:52 270 6 gusting 8 0.7
2020-Jan-21 22:42 270 4 gusting 6 0.8
2020-Jan-21 22:32 270 6 gusting 8 0.7
2020-Jan-21 22:22 260 6 gusting 9 0.7
2020-Jan-21 22:12 260 6 gusting 9 0.7
2020-Jan-21 22:02 270 6 gusting 8 0.7
2020-Jan-21 21:52 290 5 gusting 7 0.5
2020-Jan-21 21:42 280 8 gusting 13 0.5
2020-Jan-21 21:32 270 8 gusting 12 0.6
2020-Jan-21 21:22 270 6 gusting 11 0.7
2020-Jan-21 21:12 280 4 gusting 6 0.5
2020-Jan-21 21:02 280 4 gusting 6 0.4
2020-Jan-21 20:52 270 6 gusting 9 0.4
2020-Jan-21 20:42 270 6 gusting 8 0.2
2020-Jan-21 20:32 270 7 gusting 11 -0.0
2020-Jan-21 20:22 280 8 gusting 12 -0.0
2020-Jan-21 20:12 270 6 gusting 11 0.1
2020-Jan-21 20:02 270 6 gusting 8 0.2
2020-Jan-21 19:52 260 6 gusting 7 0.6
2020-Jan-21 19:42 240 2 gusting 6 1.0
2020-Jan-21 19:32 230 1 gusting 2 0.6
2020-Jan-21 19:22 260 1 gusting 4 0.6
2020-Jan-21 19:12 230 2 gusting 5 1.0
2020-Jan-21 19:02 220 1 gusting 4 0.5
2020-Jan-21 18:52 210 1 gusting 2 0.4
2020-Jan-21 18:42 150 2 gusting 5 0.6
2020-Jan-21 18:32 170 0 gusting 2 0.4
2020-Jan-21 18:22 230 1 gusting 4 0.4
2020-Jan-21 18:12 160 1 gusting 2 0.5
2020-Jan-21 18:02 190 4 gusting 6 0.6
2020-Jan-21 17:52 160 1 gusting 5 0.3
2020-Jan-21 17:42 170 2 gusting 5 0.3
2020-Jan-21 17:32 150 2 gusting 5 -0.0
2020-Jan-21 17:22 130 2 gusting 4 -0.0
2020-Jan-21 17:12 160 0 gusting 4 -0.1
2020-Jan-21 17:02 090 0 gusting 4 -0.2
2020-Jan-21 16:52 120 2 gusting 4 -0.1
2020-Jan-21 16:42 150 2 gusting 5 -0.0
2020-Jan-21 16:32 140 1 gusting 2 -0.3
2020-Jan-21 16:22 260 6 gusting 9 -0.5
2020-Jan-21 16:12 270 7 gusting 15 -0.6
2020-Jan-21 16:02 270 7 gusting 12 -0.6
2020-Jan-21 15:52 270 12 gusting 15 -0.7
2020-Jan-21 15:42 280 12 gusting 15 -0.8
2020-Jan-21 15:32 270 9 gusting 14 -0.7
2020-Jan-21 15:22 270 9 gusting 13 -0.7
2020-Jan-21 15:12 270 11 gusting 17 -0.7
2020-Jan-21 15:02 270 12 gusting 17 -0.8
2020-Jan-21 14:52 280 12 gusting 17 -0.7
2020-Jan-21 14:42 280 11 gusting 15 -0.6
2020-Jan-21 14:32 280 12 gusting 17 -0.6
2020-Jan-21 14:22 270 9 gusting 14 -0.4
2020-Jan-21 14:12 270 9 gusting 18 -0.5
2020-Jan-21 14:02 270 11 gusting 15 -0.5
2020-Jan-21 13:52 280 9 gusting 15 -0.4
2020-Jan-21 13:42 280 11 gusting 15 -0.4
2020-Jan-21 13:32 280 11 gusting 14 -0.4
2020-Jan-21 13:22 280 8 gusting 14 -0.3
2020-Jan-21 13:12 280 9 gusting 17 -0.4
2020-Jan-21 13:02 280 11 gusting 15 -0.4
2020-Jan-21 12:52 280 9 gusting 14 -0.5
2020-Jan-21 12:42 280 9 gusting 14 -0.6
2020-Jan-21 12:32 280 11 gusting 15 -0.6
2020-Jan-21 12:22 280 6 gusting 12 -0.5
2020-Jan-21 12:12 290 5 gusting 7 -0.7
2020-Jan-21 12:02 280 6 gusting 9 -0.7
2020-Jan-21 11:52 280 6 gusting 9 -0.7
2020-Jan-21 11:42 280 6 gusting 12 -0.7
2020-Jan-21 11:32 280 8 gusting 13 -0.7
2020-Jan-21 11:22 280 7 gusting 9 -0.7
2020-Jan-21 11:12 270 8 gusting 12 -0.5
2020-Jan-21 11:02 270 6 gusting 12 -0.3
2020-Jan-21 10:52 270 6 gusting 13 -0.1
2020-Jan-21 10:42 260 4 gusting 6 -0.0
2020-Jan-21 10:32 260 4 gusting 6 -0.0
2020-Jan-21 10:22 250 0 gusting 1 0.1
2020-Jan-21 10:12 190 2 gusting 5 0.2
2020-Jan-21 10:02 160 5 gusting 7 0.2
2020-Jan-21 09:52 140 6 gusting 8 0.1
2020-Jan-21 09:42 130 6 gusting 7 0.1
2020-Jan-21 09:32 140 5 gusting 6 0.3
2020-Jan-21 09:22 140 2 gusting 5 0.4
2020-Jan-21 09:12 140 4 gusting 6 0.4
2020-Jan-21 09:02 140 4 gusting 6 0.4
2020-Jan-21 08:52 130 5 gusting 7 0.4
2020-Jan-21 08:42 130 5 gusting 8 0.3
2020-Jan-21 08:32 130 2 gusting 5 0.4
2020-Jan-21 08:22 120 5 gusting 7 0.4
2020-Jan-21 08:12 120 6 gusting 11 0.3
2020-Jan-21 08:02 120 6 gusting 11 0.2
2020-Jan-21 07:52 090 6 gusting 8 0.1
2020-Jan-21 07:42 110 6 gusting 11 0.2
2020-Jan-21 07:32 130 8 gusting 12 0.2
2020-Jan-21 07:22 140 8 gusting 12 0.3
2020-Jan-21 07:12 140 8 gusting 13 0.3
2020-Jan-21 07:02 130 9 gusting 14 0.2
2020-Jan-21 06:52 140 11 gusting 13 0.2
2020-Jan-21 06:42 140 12 gusting 17 0.2
2020-Jan-21 06:32 120 12 gusting 18 0.2
2020-Jan-21 06:22 130 11 gusting 14 0.1
2020-Jan-21 06:12 140 12 gusting 18 0.2
2020-Jan-21 06:02 140 13 gusting 17 0.1
2020-Jan-21 05:52 140 13 gusting 17 0.1
2020-Jan-21 05:42 130 12 gusting 15 0.1
2020-Jan-21 05:32 150 11 gusting 14 0.1
2020-Jan-21 05:22 150 13 gusting 18 0.1
2020-Jan-21 05:12 140 13 gusting 18 0.1
2020-Jan-21 05:02 150 11 gusting 14 0.2
2020-Jan-21 04:52 150 11 gusting 13 0.2
2020-Jan-21 04:42 150 11 gusting 14 0.2
2020-Jan-21 04:32 150 11 gusting 14 0.3
2020-Jan-21 04:22 130 9 gusting 13 0.1
2020-Jan-21 04:12 120 12 gusting 14 -0.0
2020-Jan-21 04:02 120 13 gusting 18 -0.0
2020-Jan-21 03:52 120 14 gusting 20 0.1
2020-Jan-21 03:42 130 13 gusting 19 -0.0
2020-Jan-21 03:32 120 13 gusting 19 -0.0
2020-Jan-21 03:22 150 13 gusting 17 0.1
2020-Jan-21 03:12 130 13 gusting 18 0.2
2020-Jan-21 03:02 140 12 gusting 17 0.4
2020-Jan-21 02:52 120 13 gusting 20 0.3
2020-Jan-21 02:42 120 13 gusting 20 0.3
2020-Jan-21 02:32 120 9 gusting 17 0.4
2020-Jan-21 02:22 120 9 gusting 18 0.4
2020-Jan-21 02:12 120 12 gusting 20 0.5
2020-Jan-21 02:02 130 12 gusting 18 0.7
2020-Jan-21 01:52 140 14 gusting 20 0.6
2020-Jan-21 01:42 120 15 gusting 21 0.3
2020-Jan-21 01:32 120 20 gusting 24 0.3
2020-Jan-21 01:22 120 15 gusting 21 0.2
2020-Jan-21 01:12 110 15 gusting 21 0.3
2020-Jan-21 01:02 120 19 gusting 22 0.4
2020-Jan-21 00:52 120 20 gusting 24 0.7
2020-Jan-21 00:42 120 20 gusting 24 0.9
2020-Jan-21 00:32 120 20 gusting 22 0.8
2020-Jan-21 00:22 110 15 gusting 21 0.4
2020-Jan-21 00:12 110 19 gusting 25 0.5
2020-Jan-20 23:52 120 18 gusting 25 0.9
2020-Jan-20 23:42 130 17 gusting 26 0.8
2020-Jan-20 23:32 130 20 gusting 25 0.8
2020-Jan-20 23:22 140 15 gusting 21 0.5
2020-Jan-20 23:12 130 15 gusting 19 0.2
2020-Jan-20 23:02 140 14 gusting 18 0.2
2020-Jan-20 22:52 130 14 gusting 18 0.1
2020-Jan-20 22:42 130 14 gusting 18 -0.0
2020-Jan-20 22:32 130 13 gusting 19 0.1
2020-Jan-20 22:22 130 7 gusting 13 0.1
2020-Jan-20 22:12 140 7 gusting 13 0.1
2020-Jan-20 22:02 120 2 gusting 9 -0.1
2020-Jan-20 21:52 060 4 gusting 6 -0.2
2020-Jan-20 21:42 140 6 gusting 12 -0.2
2020-Jan-20 21:32 140 8 gusting 13 -0.6
2020-Jan-20 21:22 120 6 gusting 8 -0.6
2020-Jan-20 21:12 140 5 gusting 8 -0.5
2020-Jan-20 21:02 100 4 gusting 6 -0.4
2020-Jan-20 20:52 100 5 gusting 6 -0.5
2020-Jan-20 20:42 110 4 gusting 6 -0.5
2020-Jan-20 20:32 090 4 gusting 6 -0.6
2020-Jan-20 20:22 100 4 gusting 6 -0.6
2020-Jan-20 20:12 100 4 gusting 6 -0.6
2020-Jan-20 20:02 110 2 gusting 6 -0.5
2020-Jan-20 19:52 120 4 gusting 6 -0.6
2020-Jan-20 19:42 110 2 gusting 6 -0.7
2020-Jan-20 19:32 120 5 gusting 6 -0.8
2020-Jan-20 19:22 140 4 gusting 6 -0.8
2020-Jan-20 19:12 140 4 gusting 6 -0.9
2020-Jan-20 19:02 120 4 gusting 7 -1.0
2020-Jan-20 18:52 130 4 gusting 6 -1.1
2020-Jan-20 18:42 120 5 gusting 6 -1.1
2020-Jan-20 18:32 140 1 gusting 4 -1.1
2020-Jan-20 18:22 150 4 gusting 5 -1.2
2020-Jan-20 18:12 110 2 gusting 6 -1.2
2020-Jan-20 18:02 100 2 gusting 5 -1.2
2020-Jan-20 17:52 140 0 gusting 2 -1.1
2020-Jan-20 17:42 -1.3
2020-Jan-20 17:32 080 0 gusting 2 -1.4
2020-Jan-20 17:22 110 0 gusting 1 -1.4
2020-Jan-20 17:12 350 0 gusting 2 -1.5
2020-Jan-20 17:02 310 2 gusting 5 -1.6
2020-Jan-20 16:52 310 2 gusting 5 -1.6
2020-Jan-20 16:42 290 5 gusting 6 -1.7
2020-Jan-20 16:32 290 6 gusting 7 -1.8
2020-Jan-20 16:22 280 6 gusting 8 -1.9
2020-Jan-20 16:12 300 6 gusting 8 -1.9
2020-Jan-20 16:02 300 6 gusting 8 -1.9
2020-Jan-20 15:52 300 7 gusting 9 -1.9
2020-Jan-20 15:42 290 9 gusting 12 -1.8
2020-Jan-20 15:32 290 9 gusting 13 -1.6
2020-Jan-20 15:22 280 8 gusting 12 -1.7
2020-Jan-20 15:12 290 8 gusting 9 -1.7
2020-Jan-20 15:02 290 8 gusting 12 -1.7